STARLINK-31064 (58631 NORAD) Tracking and Keplerian Element Data

This shows tracking and keplerian element data for the satellite.

Feedback or suggestion? Click here.




ElementValue
Catalog58631
NameSTARLINK-31064
Epoch Orbit451
Epoch Day13.25002315
Epoch Year2024
RAAN183.721
Inclination43.0013
Eccentricity0.0001624
Argument of Perigee263.1506
Mean Anonmoly9.5559
Mean Motion15.52625432
Decay Rate-0.01740826
L11 58631U 23203P 24013.25002315 -.01740826 00000+0 -30930-1 0 9996
L22 58631 43.0013 183.7210 0001624 263.1506 9.5559 15.52625432 4512



Live tracking and technical data element details for STARLINK-31064 (NORAD 58631). STARLINK-31064 can be tracked NOW for your location showing map with azimuth and elevation plus other details from your city location.







IsCatalogInMostPopularTable: catalog: 58631, numindb: 24
Update: records affected: 1



GetName: 58631 STARLINK-31064

Hit Count: updated at: Wed, 17 Apr 2024 03:09:33 GMT